[[{"header":{"parameterUnit":"m.s-1","parameterCategory":1,"la1":30.2992,"la2":30.254,"lo1":-89.0895,"lo2":-89.0443,"dy":0.0025,"dx":0.0025,"nx":19,"ny":19,"refTime":"2026-04-28T03:00:00:Z","depth":0,"parameterNumber":2,"parameterNumberName":"U-component_of_WINDS"},"data":[0,0,0,-0.2753,-0.2754,-0.2823,-0.2823,-0.2903,-0.2903,0,0,0,0,0,0,0,0,0,0,0,-0.2726,-0.2726,-0.2753,-0.2754,-0.2823,-0.2823,-0.2902,-0.2903,0,0,0,0,0,0,0,0,0,0,0,-0.2725,-0.2726,-0.2726,-0.2755,-0.2822,-0.2823,-0.2902,-0.2854,0,0,0,0,0,0,0,0,0,0,-0.279,-0.2756,-0.2726,-0.2726,-0.2755,-0.2822,-0.2823,-0.2852,-0.2857,-0.2868,0,-0.2872,0,-0.2889,-0.2908,-0.2908,0,0,0,-0.2761,-0.2752,-0.2777,-0.2726,-0.2756,-0.2822,-0.2794,-0.2855,-0.2861,-0.2874,-0.2874,-0.2877,-0.289,-0.2908,-0.2909,-0.2942,-0.2942,0,0,-0.2757,-0.2734,-0.2772,-0.278,-0.2766,-0.2791,-0.2796,-0.2859,-0.2857,-0.2874,-0.2879,-0.2891,-0.2909,-0.2909,-0.2942,-0.2942,0,0,0,-0.2742,-0.2731,-0.2755,-0.2776,-0.2789,-0.2793,-0.2798,-0.2855,-0.2864,-0.288,-0.2892,-0.2909,-0.291,-0.2942,-0.2942,-0.2913,0,0,0,-0.274,-0.2723,-0.2753,-0.274,-0.2788,-0.2822,-0.2792,-0.286,-0.2868,-0.2892,-0.2909,-0.2911,-0.2943,-0.2942,-0.2914,-0.2903,0,0,0,-0.2724,-0.2721,-0.2728,-0.2739,-0.2767,-0.2822,-0.2835,-0.2862,-0.2875,-0.2908,-0.2911,-0.2943,-0.2942,-0.2915,-0.2905,-0.2905,0,0,0,-0.27,-0.2702,-0.2727,-0.2734,-0.2766,-0.2802,-0.2835,-0.2863,-0.2888,-0.2909,-0.2943,-0.2942,-0.2915,-0.2906,-0.2906,-0.2901,-0.2897,0,0,-0.2689,-0.2699,-0.2705,-0.273,-0.2755,-0.2794,-0.2816,-0.2861,-0.2887,-0.2923,-0.2924,-0.2914,-0.2905,-0.2905,-0.2881,-0.2878,0,0,0,-0.2694,-0.2698,-0.271,-0.2731,-0.2765,-0.2794,-0.2837,-0.2855,-0.2886,-0.2899,-0.2915,-0.291,-0.2912,-0.2911,-0.2908,-0.2911,-0.2941,-0.2941,-0.2941,-0.2646,-0.2677,-0.2689,-0.2728,-0.2749,-0.2795,-0.2816,-0.2847,-0.2873,-0.2876,-0.2887,-0.2868,-0.2866,-0.2864,-0.2867,-0.2887,-0.2887,-0.2887,-0.2887,-0.2634,-0.2644,-0.2678,-0.2702,-0.2735,-0.2757,-0.2802,-0.282,-0.2846,-0.2862,-0.2865,-0.288,-0.2859,-0.2863,-0.2885,-0.2885,-0.2886,-0.2886,-0.2886,-0.2606,-0.2616,-0.2636,-0.2671,-0.2695,-0.2737,-0.276,-0.279,-0.282,-0.2822,-0.2838,-0.2838,-0.2843,-0.2827,-0.2827,-0.2827,-0.2827,-0.2827,-0.2827,-0.2568,-0.2592,-0.2606,-0.2643,-0.2661,-0.269,-0.2737,-0.2757,-0.2787,-0.2808,-0.2808,-0.2835,-0.2851,-0.2854,-0.2826,-0.2827,-0.2827,-0.2827,-0.2827,-0.2544,-0.2554,-0.2577,-0.2595,-0.2641,-0.2664,-0.2703,-0.2742,-0.2763,-0.2774,-0.28,-0.2807,-0.282,-0.2823,-0.2826,-0.2793,-0.2793,-0.2793,-0.2793,-0.252,-0.253,-0.256,-0.2588,-0.2619,-0.2656,-0.2684,-0.2721,-0.2762,-0.2778,-0.2788,-0.2795,-0.2796,-0.2808,-0.2811,-0.2815,-0.2779,-0.2779,-0.2779,-0.2507,-0.2521,-0.2537,-0.2575,-0.2614,-0.2647,-0.2674,-0.2707,-0.2757,-0.278,-0.2792,-0.2792,-0.2804,-0.2805,-0.2828,-0.2832,-0.2839,0,0]},{"header":{"parameterUnit":"m.s-1","parameterCategory":1,"la1":30.2992,"la2":30.254,"lo1":-89.0895,"lo2":-89.0443,"dy":0.0025,"dx":0.0025,"nx":19,"ny":19,"refTime":"2026-04-28T03:00:00:Z","depth":0,"parameterNumber":3,"parameterNumberName":"V-component_of_WINDS"},"data":[0,0,0,3.8324,3.8326,3.8376,3.8376,3.8449,3.845,0,0,0,0,0,0,0,0,0,0,0,3.8316,3.8317,3.8324,3.8326,3.8376,3.8376,3.8449,3.845,0,0,0,0,0,0,0,0,0,0,0,3.8316,3.8317,3.8318,3.8326,3.8376,3.8376,3.8449,3.8408,0,0,0,0,0,0,0,0,0,0,3.8357,3.8357,3.8317,3.8318,3.8326,3.8376,3.8376,3.8405,3.841,3.8431,0,3.8453,0,3.8453,3.8456,3.8456,0,0,0,3.832,3.8353,3.836,3.8318,3.8327,3.8376,3.8352,3.8408,3.8413,3.8437,3.8454,3.8456,3.8454,3.8456,3.8457,3.8598,3.8599,0,0,3.8317,3.8329,3.8357,3.8364,3.8359,3.835,3.8353,3.8411,3.8429,3.8454,3.8458,3.8455,3.8457,3.8458,3.8597,3.8598,0,0,0,3.8313,3.8327,3.8333,3.8362,3.837,3.8352,3.8355,3.8426,3.8427,3.8458,3.8456,3.8457,3.8458,3.8596,3.8597,3.8655,0,0,0,3.8311,3.8325,3.8332,3.834,3.8369,3.8399,3.837,3.8423,3.8429,3.8456,3.8457,3.8459,3.8595,3.8597,3.8651,3.868,0,0,0,3.8311,3.8325,3.8335,3.834,3.8362,3.8398,3.8402,3.8424,3.8429,3.8456,3.8459,3.8594,3.8596,3.8647,3.8674,3.872,0,0,0,3.8313,3.8384,3.8336,3.8414,3.8362,3.8433,3.8402,3.8454,3.8484,3.8458,3.8595,3.8597,3.8646,3.8671,3.8717,3.8761,3.8781,0,0,3.8409,3.8396,3.8441,3.8399,3.8482,3.8425,3.8516,3.8532,3.8523,3.8573,3.8576,3.8652,3.8674,3.8719,3.8887,3.8903,0,0,0,3.8476,3.8508,3.8528,3.8558,3.8573,3.8587,3.8589,3.8594,3.8636,3.8552,3.8681,3.8693,3.8719,3.874,3.8754,3.8775,3.8607,3.8607,3.8607,3.8629,3.8614,3.8687,3.8679,3.8708,3.8709,3.8731,3.8738,3.8715,3.8746,3.8761,3.8864,3.8889,3.8899,3.8922,3.8783,3.8783,3.8783,3.8783,3.8768,3.8812,3.8779,3.8838,3.8822,3.8871,3.8873,3.8855,3.8897,3.8852,3.8874,3.8826,3.8917,3.8936,3.8787,3.8787,3.8786,3.8786,3.8785,3.8867,3.8885,3.8891,3.8933,3.8966,3.8954,3.8996,3.898,3.8964,3.8986,3.9,3.8999,3.8996,3.8994,3.8994,3.8995,3.8995,3.8995,3.8996,3.8967,3.8972,3.9011,3.9032,3.9048,3.9068,3.9068,3.9083,3.9096,3.9081,3.9081,3.9054,3.8928,3.8897,3.9001,3.9,3.8999,3.8999,3.8998,3.9114,3.9078,3.9138,3.9154,3.9177,3.921,3.9188,3.9221,3.9231,3.9252,3.922,3.913,3.9116,3.9105,3.9079,3.9224,3.9224,3.9224,3.9224,3.9198,3.9189,3.9245,3.9273,3.9298,3.9283,3.935,3.935,3.9344,3.9349,3.9326,3.929,3.928,3.9271,3.9257,3.9232,3.9413,3.9413,3.9413,3.9287,3.928,3.934,3.9335,3.9351,3.9364,3.9426,3.9458,3.9444,3.942,3.9353,3.9345,3.9287,3.9269,3.9244,3.9222,3.9177,0,0]}]]